QPF
0.00 0.00 0.00 0.00 0.00 0.00 0.00 0.00 0.00 0.00 0.00 0.00 0.00 0.00 0.00 0.00 0.00 0.00 0.00 0.00 0.01 0.03 0.08 0.13 0.06 0.00 0.00 0.00 0.01 0.00 0.01 0.00 0.00 0.01 0.00 0.04 0.02 0.00 0.00 0.00 0.00 0.00 0.00
0.00 0.00 0.00 0.00 0.00 0.02 0.00 0.00 0.00 0.00 0.00 0.00 0.00 0.00 0.00 0.00 0.00 0.00 0.00 0.00 0.01 0.01 0.03 0.01 0.15 0.14 0.01 0.04 0.01 0.00 0.00 0.00 0.00 0.00 0.00 0.02 0.05 0.02 0.00 0.00 0.00 0.01 0.01
0.00 0.00 0.00 0.00 0.00 0.01 0.00 0.00 0.00 0.00 0.00 0.00 0.00 0.00 0.00 0.00 0.00 0.00 0.00 0.00 0.00 0.01 0.01 0.03 0.04 0.10 0.17 0.09 0.03 0.02 0.07 0.04 0.01 0.00 0.00 0.00 0.01 0.01 0.01 0.00 0.00 0.01 0.00
0.00 0.00 0.00 0.00 0.00 0.00 0.00 0.00 0.00 0.00 0.00 0.00 0.00 0.00 0.00 0.00 0.00 0.00 0.00 0.00 0.00 0.00 0.00 0.02 0.02 0.02 0.01 0.01 0.03 0.05 0.10 0.08 0.05 0.01 0.00 0.00 0.00 0.01 0.01 0.00 0.00 0.02 0.00
0.00 0.05 0.00 0.00 0.00 0.00 0.00 0.00 0.00 0.00 0.00 0.00 0.00 0.00 0.00 0.00 0.00 0.00 0.00 0.00 0.00 0.00 0.00 0.00 0.01 0.02 0.01 0.00 0.02 0.10 0.14 0.07 0.06 0.04 0.02 0.03 0.01 0.00 0.00 0.01 0.01 0.01 0.01
0.00 0.00 0.00 0.00 0.00 0.00 0.00 0.00 0.00 0.00 0.00 0.00 0.00 0.00 0.00 0.00 0.00 0.00 0.00 0.00 0.00 0.00 0.00 0.00 0.00 0.01 0.01 0.02 0.02 0.03 0.07 0.07 0.05 0.08 0.07 0.07 0.07 0.04 0.03 0.02 0.02 0.03 0.02
0.00 0.00 0.00 0.00 0.00 0.00 0.00 0.00 0.00 0.00 0.00 0.00 0.00 0.00 0.00 0.00 0.00 0.00 0.00 0.00 0.00 0.00 0.00 0.00 0.00 0.00 0.01 0.02 0.03 0.03 0.00 0.02 0.05 0.07 0.07 0.08 0.10 0.14 0.14 0.15 0.19 0.17 0.14
0.00 0.00 0.00 0.00 0.00 0.00 0.00 0.00 0.00 0.00 0.00 0.00 0.00 0.00 0.00 0.00 0.00 0.00 0.00 0.00 0.00 0.00 0.00 0.00 0.00 0.00 0.00 0.00 0.00 0.01 0.00 0.00 0.00 0.00 0.02 0.03 0.05 0.09 0.12 0.10 0.15 0.19 0.21
0.00 0.00 0.00 0.00 0.00 0.00 0.00 0.00 0.00 0.00 0.00 0.00 0.00 0.00 0.00 0.00 0.00 0.00 0.00 0.00 0.00 0.00 0.00 0.00 0.00 0.00 0.00 0.00 0.00 0.00 0.00 0.00 0.00 0.00 0.00 0.00 0.00 0.00 0.02 0.03 0.03 0.05 0.05
0.00 0.00 0.00 0.00 0.00 0.00 0.00 0.00 0.00 0.00 0.00 0.00 0.00 0.00 0.00 0.00 0.00 0.00 0.00 0.00 0.00 0.00 0.00 0.00 0.00 0.00 0.00 0.00 0.00 0.00 0.00 0.00 0.00 0.00 0.00 0.00 0.00 0.00 0.00 0.00 0.00 0.00 0.00
0.00 0.00 0.00 0.00 0.00 0.00 0.00 0.00 0.00 0.00 0.00 0.00 0.00 0.00 0.00 0.00 0.00 0.00 0.00 0.00 0.00 0.00 0.00 0.00 0.00 0.00 0.00 0.00 0.00 0.00 0.00 0.00 0.00 0.00 0.00 0.00 0.00 0.00 0.00 0.00 0.00 0.00 0.00
0.00 0.00 0.00 0.00 0.00 0.00 0.00 0.00 0.00 0.00 0.00 0.00 0.00 0.00 0.00 0.00 0.00 0.00 0.00 0.00 0.00 0.00 0.00 0.00 0.00 0.00 0.00 0.00 0.00 0.00 0.00 0.00 0.00 0.00 0.00 0.00 0.00 0.00 0.00 0.00 0.00 0.00 0.00
0.00 0.00 0.00 0.00 0.00 0.00 0.00 0.00 0.00 0.00 0.00 0.00 0.00 0.00 0.00 0.00 0.00 0.00 0.00 0.00 0.00 0.00 0.00 0.00 0.00 0.00 0.00 0.00 0.00 0.00 0.00 0.00 0.00 0.00 0.00 0.00 0.00 0.00 0.00 0.00 0.00 0.00 0.00
0.00 0.00 0.00 0.00 0.00 0.00 0.00 0.00 0.00 0.00 0.00 0.00 0.00 0.00 0.00 0.00 0.00 0.00 0.00 0.00 0.00 0.00 0.00 0.00 0.00 0.00 0.00 0.00 0.00 0.00 0.00 0.00 0.00 0.00 0.00 0.00 0.00 0.00 0.00 0.00 0.00 0.00 0.00
0.00 0.00 0.00 0.00 0.00 0.00 0.00 0.00 0.00 0.00 0.00 0.00 0.00 0.00 0.00 0.00 0.00 0.00 0.00 0.00 0.00 0.00 0.00 0.00 0.00 0.00 0.00 0.00 0.00 0.00 0.00 0.00 0.00 0.00 0.00 0.00 0.00 0.00 0.00 0.00 0.00 0.00 0.00
0.00 0.00 0.00 0.00 0.00 0.00 0.00 0.00 0.00 0.00 0.00 0.00 0.00 0.00 0.00 0.00 0.00 0.00 0.00 0.00 0.00 0.00 0.00 0.00 0.00 0.00 0.00 0.00 0.00 0.00 0.00 0.00 0.00 0.00 0.00 0.00 0.00 0.00 0.00 0.00 0.00 0.00 0.00
0.00 0.00 0.00 0.00 0.00 0.00 0.00 0.00 0.00 0.00 0.00 0.00 0.00 0.00 0.00 0.00 0.00 0.00 0.00 0.00 0.00 0.00 0.00 0.00 0.00 0.00 0.00 0.00 0.00 0.00 0.00 0.00 0.00 0.00 0.00 0.00 0.00 0.00 0.00 0.00 0.00 0.00 0.00
0.00 0.00 0.00 0.00 0.00 0.00 0.00 0.00 0.00 0.00 0.00 0.00 0.00 0.00 0.00 0.00 0.00 0.00 0.00 0.00 0.00 0.00 0.00 0.00 0.00 0.00 0.00 0.00 0.00 0.00 0.00 0.00 0.00 0.00 0.00 0.00 0.00 0.00 0.00 0.00 0.00 0.00 0.00
0.00 0.00 0.00 0.00 0.00 0.00 0.00 0.00 0.00 0.00 0.00 0.00 0.00 0.00 0.00 0.00 0.00 0.00 0.00 0.00 0.00 0.00 0.00 0.00 0.00 0.00 0.00 0.00 0.00 0.00 0.00 0.00 0.00 0.00 0.00 0.00 0.00 0.00 0.00 0.00 0.00 0.00 0.00
0.00 0.00 0.00 0.00 0.00 0.00 0.00 0.00 0.00 0.00 0.00 0.01 0.02 0.04 0.02 0.01 0.00 0.00 0.00 0.00 0.00 0.00 0.00 0.00 0.00 0.00 0.00 0.00 0.00 0.00 0.00 0.00 0.00 0.00 0.00 0.00 0.00 0.00 0.00 0.00 0.00 0.00 0.00
0.00 0.00 0.00 0.00 0.00 0.00 0.00 0.00 0.00 0.00 0.00 0.03 0.05 0.05 0.05 0.13 0.04 0.00 0.00 0.00 0.00 0.00 0.00 0.00 0.00 0.00 0.00 0.00 0.00 0.00 0.00 0.00 0.00 0.00 0.00 0.00 0.00 0.00 0.00 0.00 0.00 0.00 0.00
0.00 0.00 0.00 0.00 0.00 0.00 0.00 0.00 0.00 0.00 0.00 0.03 0.05 0.03 0.04 0.08 0.04 0.00 0.00 0.00 0.00 0.00 0.00 0.00 0.00 0.00 0.00 0.00 0.00 0.00 0.00 0.00 0.00 0.00 0.00 0.00 0.00 0.00 0.00 0.00 0.00 0.00 0.00
0.00 0.00 0.00 0.00 0.00 0.00 0.00 0.00 0.00 0.00 0.00 0.04 0.03 0.03 0.04 0.02 0.01 0.00 0.00 0.00 0.00 0.01 0.02 0.01 0.01 0.00 0.00 0.00 0.00 0.00 0.00 0.00 0.00 0.00 0.00 0.00 0.00 0.00 0.00 0.00 0.00 0.00 0.00
0.00 0.00 0.00 0.00 0.00 0.00 0.00 0.00 0.00 0.00 0.00 0.03 0.04 0.02 0.01 0.00 0.00 0.00 0.00 0.00 0.00 0.00 0.02 0.01 0.01 0.00 0.00 0.00 0.00 0.00 0.00 0.00 0.00 0.00 0.00 0.00 0.00 0.00 0.00 0.00 0.00 0.00 0.00
0.00 0.00 0.00 0.00 0.00 0.00 0.00 0.00 0.00 0.00 0.01 0.02 0.03 0.03 0.00 0.00 0.00 0.00 0.00 0.00 0.00 0.00 0.01 0.01 0.00 0.00 0.00 0.00 0.00 0.00 0.00 0.00 0.00 0.00 0.00 0.00 0.00 0.00 0.00 0.00 0.00 0.00 0.00
0.00 0.00 0.00 0.00 0.00 0.00 0.00 0.00 0.00 0.00 0.00 0.01 0.03 0.01 0.00 0.00 0.00 0.00 0.00 0.02 0.02 0.01 0.01 0.00 0.00 0.00 0.00 0.00 0.00 0.00 0.00 0.00 0.00 0.00 0.00 0.00 0.00 0.00 0.00 0.00 0.00 0.00 0.00
MSLP
1019.07 1019.17 1019.19 1019.22 1019.17 1019.21 1019.19 1019.27 1019.18 1018.99 1019.04 1019.11 1018.99 1019.02 1018.98 1019.08 1019.19 1019.49 1019.76 1019.79 1019.91 1020.01 1020.09 1020.37 1020.48 1020.78 1020.96 1021.21 1021.44 1021.64 1021.84 1021.99 1022.13 1022.25 1022.45 1022.73 1022.83 1022.98 1023.12 1023.15 1023.15 1023.20 1023.31
1019.02 1019.14 1019.23 1019.29 1019.24 1019.21 1019.23 1019.27 1019.12 1019.00 1019.08 1019.15 1019.13 1019.17 1018.96 1019.05 1019.28 1019.49 1019.68 1019.74 1019.82 1019.96 1020.15 1020.14 1020.35 1020.59 1020.91 1021.21 1021.33 1021.45 1021.67 1021.90 1022.04 1022.19 1022.37 1022.56 1022.87 1022.92 1022.96 1023.05 1023.05 1023.13 1023.25
1018.85 1019.01 1019.20 1019.24 1019.07 1019.05 1019.10 1019.18 1019.14 1019.12 1019.36 1019.29 1019.36 1019.29 1019.20 1019.19 1019.25 1019.40 1019.57 1019.77 1019.86 1019.89 1020.02 1020.20 1020.38 1020.63 1020.80 1020.97 1021.28 1021.37 1021.52 1021.69 1021.94 1022.05 1022.17 1022.29 1022.49 1022.67 1022.82 1022.90 1022.98 1023.00 1023.06
1018.55 1018.78 1018.96 1018.96 1018.94 1019.03 1019.00 1019.24 1019.45 1019.59 1019.81 1019.79 1019.61 1019.42 1019.36 1019.22 1019.31 1019.44 1019.63 1019.79 1019.99 1020.04 1020.05 1020.19 1020.28 1020.48 1020.79 1020.96 1021.03 1021.10 1021.48 1021.65 1021.76 1021.82 1021.96 1022.11 1022.21 1022.38 1022.53 1022.64 1022.72 1022.79 1022.86
1018.23 1018.67 1018.73 1018.76 1018.93 1019.06 1019.17 1019.34 1019.63 1019.83 1019.99 1020.04 1019.95 1019.78 1019.81 1019.59 1019.38 1019.46 1019.63 1019.82 1019.99 1020.08 1020.28 1020.32 1020.41 1020.57 1020.70 1020.76 1020.93 1021.05 1021.30 1021.29 1021.53 1021.65 1021.72 1021.78 1021.98 1022.15 1022.25 1022.31 1022.41 1022.52 1022.61
1017.79 1018.15 1018.46 1018.77 1018.94 1019.16 1019.39 1019.53 1019.77 1019.91 1020.12 1020.39 1020.29 1020.29 1020.30 1020.00 1019.80 1019.85 1019.82 1019.74 1019.96 1020.16 1020.40 1020.52 1020.56 1020.68 1020.74 1020.79 1020.81 1020.99 1021.08 1021.10 1021.22 1021.38 1021.48 1021.72 1021.73 1021.88 1022.02 1022.09 1022.15 1022.24 1022.31
1017.36 1017.76 1018.17 1018.63 1018.81 1019.08 1019.24 1019.50 1019.76 1020.10 1020.37 1020.45 1020.55 1020.66 1020.64 1020.52 1020.46 1020.41 1020.27 1020.09 1020.08 1020.16 1020.40 1020.67 1020.84 1020.90 1020.88 1020.94 1020.98 1021.05 1021.04 1021.01 1021.09 1021.20 1021.25 1021.35 1021.49 1021.55 1021.66 1021.78 1021.80 1021.92 1021.85
1017.00 1017.37 1017.82 1018.35 1018.56 1018.94 1019.18 1019.51 1019.73 1020.25 1020.51 1020.48 1020.82 1021.14 1021.20 1021.10 1020.85 1020.84 1020.69 1020.75 1020.70 1020.64 1020.65 1020.79 1020.88 1021.00 1021.15 1021.26 1021.27 1021.30 1021.39 1021.40 1021.37 1021.43 1021.48 1021.50 1021.40 1021.40 1021.60 1021.56 1021.57 1021.50 1021.33
1016.73 1017.03 1017.47 1017.91 1018.28 1018.62 1019.04 1019.30 1019.65 1020.02 1020.35 1020.67 1020.67 1020.89 1021.59 1021.56 1021.56 1021.32 1021.25 1021.23 1021.21 1021.11 1021.10 1021.13 1021.14 1021.29 1021.48 1021.58 1021.59 1021.58 1021.65 1021.69 1021.70 1021.72 1021.71 1021.68 1021.71 1021.75 1021.79 1021.83 1021.72 1021.67 1021.60
1016.37 1016.73 1017.12 1017.58 1017.89 1018.35 1018.83 1018.98 1019.48 1019.95 1020.16 1020.52 1020.79 1020.91 1020.95 1021.14 1021.57 1021.87 1021.57 1021.57 1021.42 1021.39 1021.36 1021.27 1021.29 1021.33 1021.49 1021.65 1021.70 1021.79 1021.79 1021.79 1021.81 1021.80 1021.81 1021.86 1021.93 1021.94 1021.96 1021.90 1021.83 1021.78 1021.75
1016.09 1016.27 1016.69 1017.19 1017.66 1018.05 1018.40 1018.78 1019.29 1019.77 1019.93 1020.27 1020.47 1020.82 1021.11 1021.25 1021.29 1021.52 1021.74 1021.69 1021.65 1021.46 1021.35 1021.35 1021.39 1021.52 1021.53 1021.63 1021.71 1021.75 1021.80 1021.87 1021.85 1021.83 1021.83 1021.82 1021.86 1021.92 1021.99 1021.97 1021.95 1021.91 1021.83
1015.85 1015.94 1016.34 1016.77 1017.23 1017.78 1018.01 1018.46 1018.98 1019.48 1019.71 1020.09 1020.42 1020.57 1020.69 1021.04 1021.24 1021.31 1021.61 1021.77 1021.67 1021.53 1021.37 1021.26 1021.29 1021.20 1021.37 1021.44 1021.50 1021.60 1021.72 1021.80 1021.95 1021.97 1021.90 1021.86 1021.85 1021.86 1021.87 1021.87 1021.83 1021.81 1021.79
1015.63 1015.83 1016.20 1016.52 1016.95 1017.24 1017.53 1018.18 1018.82 1019.21 1019.58 1019.89 1020.12 1020.40 1020.65 1020.77 1020.97 1021.21 1021.39 1021.71 1021.74 1021.72 1021.51 1021.15 1020.88 1020.90 1020.95 1021.12 1021.22 1021.33 1021.47 1021.61 1021.65 1021.78 1021.94 1021.94 1021.92 1021.90 1021.86 1021.83 1021.76 1021.69 1021.65
1014.67 1015.08 1015.59 1015.74 1016.19 1016.71 1017.20 1017.83 1018.49 1018.95 1019.28 1019.55 1019.87 1020.17 1020.48 1020.65 1020.64 1020.74 1020.91 1021.26 1021.76 1021.76 1021.61 1021.09 1020.91 1020.69 1020.71 1020.74 1020.84 1021.13 1021.19 1021.31 1021.46 1021.59 1021.72 1021.84 1021.91 1021.84 1021.72 1021.61 1021.56 1021.54 1021.50
1014.07 1014.52 1014.98 1015.45 1015.84 1016.27 1016.76 1017.42 1018.12 1018.66 1018.93 1019.28 1019.55 1019.80 1020.20 1020.43 1020.50 1020.46 1020.51 1020.58 1020.84 1021.49 1021.47 1020.99 1021.03 1020.81 1020.68 1020.72 1020.85 1020.96 1021.03 1021.15 1021.28 1021.36 1021.49 1021.58 1021.56 1021.49 1021.40 1021.35 1021.30 1021.22 1021.06
1013.44 1013.92 1014.49 1015.01 1015.50 1015.97 1016.45 1017.06 1017.71 1018.21 1018.74 1019.05 1019.27 1019.60 1019.85 1020.03 1020.22 1020.36 1020.51 1020.56 1020.68 1020.89 1021.05 1020.84 1020.77 1020.75 1020.62 1020.62 1020.73 1020.76 1020.83 1020.98 1021.02 1021.10 1021.12 1021.11 1021.09 1020.96 1020.82 1020.79 1020.78 1020.70 1020.55
1012.67 1013.27 1013.80 1014.39 1015.01 1015.52 1015.96 1016.70 1017.21 1017.80 1018.36 1018.70 1018.96 1019.23 1019.42 1019.57 1019.72 1020.09 1020.38 1020.51 1020.62 1020.77 1020.89 1020.79 1020.95 1020.76 1020.71 1020.65 1020.71 1020.91 1020.88 1020.79 1020.72 1020.69 1020.65 1020.68 1020.65 1020.61 1020.55 1020.49 1020.35 1020.19 1020.11
1012.00 1012.60 1013.17 1013.74 1014.33 1014.75 1015.24 1015.84 1016.54 1017.10 1017.64 1018.06 1018.28 1018.76 1019.05 1019.43 1019.49 1019.60 1019.94 1020.30 1020.39 1020.59 1020.67 1020.68 1020.67 1020.67 1020.73 1020.62 1020.63 1020.64 1020.57 1020.43 1020.21 1020.14 1020.21 1020.21 1020.26 1020.28 1020.17 1020.06 1019.97 1019.82 1019.77
1011.09 1011.87 1012.34 1012.80 1013.48 1013.97 1014.52 1015.00 1015.58 1016.09 1016.69 1017.11 1017.48 1017.91 1018.23 1018.68 1018.98 1019.43 1019.54 1019.70 1020.02 1020.19 1020.43 1020.47 1020.33 1020.51 1020.49 1020.45 1020.51 1020.43 1020.43 1020.39 1020.21 1019.90 1019.84 1019.92 1019.87 1019.77 1019.78 1019.76 1019.67 1019.53 1019.52
1010.14 1010.77 1011.27 1011.85 1012.50 1013.25 1013.76 1014.15 1014.67 1015.27 1015.93 1016.36 1016.82 1017.34 1017.68 1017.92 1018.18 1018.68 1019.04 1019.29 1019.37 1019.72 1020.01 1020.29 1020.39 1020.43 1020.57 1020.62 1020.51 1020.44 1020.14 1019.91 1020.00 1019.95 1019.75 1019.82 1019.65 1019.54 1019.57 1019.53 1019.36 1019.11 1019.04
1008.79 1009.53 1010.44 1011.11 1011.68 1012.28 1012.67 1013.23 1013.84 1014.41 1015.13 1015.61 1016.12 1016.65 1016.79 1017.25 1017.56 1017.65 1018.13 1018.40 1018.96 1019.17 1019.46 1019.82 1019.97 1020.20 1020.10 1020.31 1020.36 1020.07 1019.95 1019.95 1019.73 1019.41 1019.25 1019.15 1019.32 1019.15 1018.89 1018.94 1018.83 1018.71 1018.49
1008.00 1008.80 1009.49 1010.16 1010.80 1011.08 1011.51 1012.25 1012.84 1013.63 1014.34 1014.77 1015.31 1015.65 1015.91 1016.36 1016.81 1016.75 1017.30 1017.50 1017.97 1018.39 1018.54 1018.79 1018.89 1019.26 1019.50 1019.62 1019.76 1019.89 1020.02 1020.06 1019.77 1019.15 1019.35 1019.06 1019.22 1018.89 1018.59 1018.57 1018.20 1018.18 1018.15
1006.70 1007.45 1008.36 1009.16 1009.69 1010.24 1010.82 1011.44 1012.10 1012.67 1013.17 1013.62 1014.08 1014.57 1015.09 1015.30 1015.63 1016.09 1016.47 1016.66 1017.12 1017.40 1017.46 1017.88 1018.35 1018.64 1018.71 1018.79 1019.06 1019.27 1019.43 1019.59 1019.59 1019.16 1019.29 1019.08 1018.86 1018.58 1018.08 1017.90 1017.74 1017.75 1017.64
1005.38 1006.23 1007.06 1007.79 1008.64 1009.25 1009.84 1010.47 1011.11 1011.62 1012.09 1012.40 1012.79 1013.28 1013.76 1014.21 1014.67 1015.23 1015.66 1016.09 1016.50 1016.95 1017.07 1017.06 1017.16 1017.32 1017.34 1017.68 1018.15 1018.40 1018.68 1019.19 1019.22 1018.99 1019.38 1019.02 1018.49 1018.17 1017.80 1017.49 1017.37 1017.16 1017.03
1004.52 1004.96 1005.78 1006.70 1007.23 1007.85 1008.52 1009.19 1010.19 1010.81 1011.14 1011.35 1011.77 1012.28 1012.75 1013.33 1013.74 1014.38 1015.14 1015.49 1015.91 1016.31 1016.49 1016.59 1016.89 1017.18 1017.32 1017.58 1017.69 1018.19 1018.47 1018.88 1018.84 1018.50 1018.89 1018.80 1018.19 1018.03 1017.77 1017.22 1016.91 1016.88 1016.77
1003.52 1004.30 1004.71 1005.10 1005.64 1006.26 1007.15 1007.91 1008.93 1009.55 1010.07 1010.52 1011.07 1011.54 1011.65 1012.49 1013.24 1013.98 1014.57 1015.01 1015.77 1016.04 1016.38 1016.71 1016.96 1017.19 1017.45 1017.50 1017.57 1017.65 1017.86 1018.24 1018.71 1018.47 1018.47 1018.76 1018.20 1018.13 1017.55 1017.20 1017.06 1016.67 1016.34
Thickness
5756 5756 5756 5757 5757 5756 5756 5754 5754 5755 5753 5751 5751 5750 5749 5748 5746 5743 5741 5739 5736 5734 5733 5730 5729 5726 5725 5723 5721 5718 5716 5714 5712 5712 5711 5710 5709 5708 5706 5706 5707 5706 5705
5758 5757 5757 5757 5758 5758 5756 5755 5755 5754 5752 5751 5750 5748 5749 5748 5745 5743 5741 5739 5737 5735 5732 5732 5730 5728 5726 5723 5721 5719 5715 5712 5711 5711 5710 5709 5707 5707 5708 5707 5707 5706 5705
5760 5759 5758 5758 5759 5759 5757 5755 5754 5753 5750 5750 5749 5748 5748 5748 5746 5744 5743 5740 5738 5736 5734 5732 5731 5729 5727 5724 5721 5719 5714 5712 5710 5710 5710 5709 5707 5707 5707 5707 5707 5708 5707
5762 5760 5760 5760 5759 5758 5758 5754 5752 5750 5748 5747 5748 5748 5747 5747 5746 5744 5742 5739 5737 5735 5734 5732 5731 5729 5726 5724 5722 5720 5716 5714 5713 5710 5709 5707 5705 5706 5708 5708 5708 5708 5708
5765 5762 5762 5762 5759 5757 5755 5754 5751 5749 5746 5745 5745 5745 5745 5745 5744 5742 5741 5739 5736 5735 5732 5731 5730 5728 5726 5724 5723 5720 5717 5717 5714 5712 5711 5707 5704 5705 5706 5708 5708 5709 5708
5770 5767 5764 5761 5758 5755 5753 5751 5749 5748 5744 5741 5741 5739 5738 5741 5741 5739 5738 5739 5737 5734 5731 5729 5728 5726 5725 5724 5723 5720 5719 5718 5716 5714 5713 5708 5707 5706 5706 5707 5708 5708 5709
5773 5770 5766 5761 5759 5756 5754 5751 5747 5744 5741 5739 5736 5733 5733 5734 5734 5735 5735 5735 5734 5733 5730 5727 5725 5724 5723 5721 5720 5718 5718 5717 5716 5714 5712 5711 5709 5707 5706 5707 5708 5706 5708
5777 5774 5769 5763 5760 5756 5754 5750 5747 5741 5737 5736 5728 5723 5720 5725 5728 5729 5729 5729 5729 5728 5727 5725 5723 5721 5719 5716 5715 5714 5712 5711 5711 5710 5709 5709 5709 5710 5707 5707 5707 5707 5706
5779 5776 5771 5766 5762 5758 5753 5750 5747 5743 5736 5733 5729 5724 5712 5712 5716 5722 5722 5722 5722 5722 5722 5721 5720 5718 5716 5713 5711 5710 5708 5707 5706 5705 5705 5706 5705 5704 5704 5703 5705 5705 5705
5780 5777 5773 5769 5766 5760 5755 5753 5747 5742 5738 5731 5728 5727 5725 5723 5713 5709 5716 5716 5718 5718 5717 5717 5715 5714 5712 5709 5708 5706 5704 5704 5703 5702 5701 5701 5700 5699 5698 5699 5700 5701 5701
5781 5779 5775 5771 5767 5762 5759 5754 5749 5744 5741 5735 5732 5727 5723 5721 5719 5715 5709 5712 5713 5714 5714 5713 5712 5709 5707 5705 5704 5703 5701 5699 5699 5699 5698 5697 5697 5695 5694 5694 5695 5695 5696
5782 5781 5777 5772 5768 5763 5761 5757 5752 5746 5743 5739 5735 5732 5728 5722 5719 5717 5712 5709 5710 5711 5711 5709 5708 5707 5705 5703 5702 5699 5697 5695 5693 5692 5693 5693 5692 5691 5690 5690 5690 5691 5691
5779 5779 5776 5773 5769 5766 5763 5758 5753 5748 5744 5741 5738 5733 5730 5727 5723 5719 5715 5708 5706 5705 5706 5709 5709 5707 5705 5702 5699 5696 5694 5691 5690 5689 5688 5688 5688 5687 5686 5686 5686 5687 5687
5786 5784 5779 5776 5773 5769 5764 5759 5754 5749 5746 5744 5739 5735 5731 5729 5728 5725 5720 5712 5704 5701 5701 5704 5704 5703 5701 5700 5698 5694 5691 5689 5686 5684 5683 5682 5681 5681 5682 5682 5683 5683 5683
5788 5786 5782 5778 5774 5770 5766 5761 5755 5750 5747 5744 5741 5736 5731 5728 5727 5725 5722 5719 5712 5700 5697 5702 5698 5699 5698 5695 5692 5689 5687 5684 5681 5679 5678 5677 5677 5677 5678 5677 5677 5678 5679
5790 5788 5783 5780 5776 5772 5768 5763 5757 5752 5746 5743 5740 5735 5731 5728 5724 5721 5717 5714 5709 5704 5697 5700 5699 5697 5694 5690 5687 5684 5681 5679 5677 5675 5673 5673 5673 5673 5675 5675 5674 5674 5675
5793 5790 5785 5781 5777 5773 5771 5764 5760 5754 5748 5743 5740 5735 5732 5729 5725 5719 5714 5710 5706 5701 5695 5695 5691 5691 5687 5685 5681 5676 5675 5674 5672 5672 5670 5668 5667 5667 5667 5666 5666 5667 5668
5793 5790 5786 5783 5779 5777 5775 5770 5763 5758 5751 5746 5743 5737 5732 5726 5723 5720 5714 5709 5705 5700 5696 5691 5689 5686 5682 5679 5676 5674 5673 5671 5671 5670 5668 5665 5662 5661 5661 5661 5662 5663 5662
5795 5790 5788 5786 5782 5780 5776 5774 5769 5764 5757 5752 5747 5741 5737 5730 5724 5718 5714 5710 5705 5701 5695 5691 5688 5684 5680 5676 5673 5671 5667 5665 5664 5665 5663 5659 5657 5657 5654 5653 5652 5652 5650
5797 5795 5794 5790 5786 5782 5780 5778 5774 5767 5760 5755 5749 5742 5737 5733 5728 5722 5715 5709 5706 5699 5693 5686 5683 5677 5672 5668 5668 5665 5664 5663 5660 5654 5653 5650 5649 5647 5645 5644 5643 5644 5643
5806 5801 5795 5791 5789 5786 5785 5781 5775 5769 5760 5756 5751 5745 5741 5733 5729 5726 5719 5711 5702 5696 5690 5683 5677 5671 5668 5664 5660 5661 5659 5655 5654 5652 5648 5643 5638 5636 5635 5632 5632 5632 5632
5807 5802 5798 5794 5790 5792 5789 5782 5778 5770 5762 5758 5752 5749 5745 5738 5731 5728 5720 5712 5704 5695 5691 5684 5679 5670 5666 5661 5657 5651 5645 5640 5639 5641 5635 5631 5626 5626 5624 5621 5622 5619 5618
5812 5807 5801 5796 5793 5792 5787 5781 5776 5774 5769 5764 5758 5753 5746 5743 5736 5728 5719 5713 5703 5696 5692 5683 5674 5666 5663 5658 5654 5646 5639 5636 5631 5630 5624 5619 5615 5614 5613 5611 5609 5606 5603
5818 5812 5806 5802 5796 5793 5788 5782 5779 5779 5774 5769 5765 5759 5753 5747 5739 5729 5720 5709 5700 5690 5684 5682 5676 5670 5665 5658 5650 5644 5636 5627 5622 5618 5610 5607 5607 5604 5601 5599 5596 5595 5593
5820 5817 5812 5804 5801 5798 5792 5787 5779 5778 5775 5772 5767 5762 5755 5749 5740 5728 5716 5706 5696 5686 5681 5676 5669 5662 5656 5649 5643 5634 5625 5616 5612 5610 5602 5598 5598 5593 5590 5589 5584 5582 5581
5821 5815 5812 5811 5807 5804 5795 5789 5783 5780 5776 5770 5767 5759 5755 5747 5735 5723 5713 5702 5689 5681 5674 5667 5661 5652 5644 5640 5635 5627 5620 5610 5601 5599 5595 5588 5585 5578 5578 5574 5569 5567 5568